Time,TemperatureF,DewpointF,PressureIn,WindDirection,WindDirectionDegrees,WindSpeedMPH,WindSpeedGustMPH,Humidity,HourlyPrecipIn,Conditions,Clouds,dailyrainin,SolarRadiationWatts/m^2,SoftwareType,DateUTC
2013-06-04 00:12:00,55.7,46.0,29.96,SSW,196,0.0,4.0,69,0.00,,,0.00,0,weatherlink.com 1.10,2013-06-04 04:12:00,
2013-06-04 00:27:00,56.3,45.0,29.96,SSE,167,2.0,2.0,66,0.00,,,0.00,0,weatherlink.com 1.10,2013-06-04 04:27:00,
2013-06-04 00:42:00,56.2,44.0,29.96,South,178,0.0,4.0,65,0.00,,,0.00,0,weatherlink.com 1.10,2013-06-04 04:42:00,
2013-06-04 00:57:00,55.7,45.0,29.96,SSW,211,0.0,2.0,67,0.00,,,0.00,0,weatherlink.com 1.10,2013-06-04 04:57:00,
2013-06-04 01:12:00,54.8,44.0,29.96,SSW,211,0.0,1.0,68,0.00,,,0.00,0,weatherlink.com 1.10,2013-06-04 05:12:00,
2013-06-04 01:27:00,55.1,44.0,29.97,SSW,211,0.0,1.0,67,0.00,,,0.00,0,weatherlink.com 1.10,2013-06-04 05:27:00,
2013-06-04 01:42:00,55.3,44.0,29.97,SSW,211,0.0,1.0,65,0.00,,,0.00,0,weatherlink.com 1.10,2013-06-04 05:42:00,
2013-06-04 01:57:00,55.0,44.0,29.96,SSW,211,0.0,1.0,66,0.00,,,0.00,0,weatherlink.com 1.10,2013-06-04 05:57:00,
2013-06-04 02:12:00,53.9,43.0,29.97,SSW,211,0.0,1.0,68,0.00,,,0.00,0,weatherlink.com 1.10,2013-06-04 06:12:00,
2013-06-04 02:27:00,52.8,43.0,29.97,SSW,211,0.0,2.0,70,0.00,,,0.00,0,weatherlink.com 1.10,2013-06-04 06:27:00,
2013-06-04 02:42:00,52.4,44.0,29.97,SSW,211,0.0,2.0,73,0.00,,,0.00,0,weatherlink.com 1.10,2013-06-04 06:42:00,
2013-06-04 02:57:00,52.3,44.0,29.97,SSW,211,0.0,0.0,72,0.00,,,0.00,0,weatherlink.com 1.10,2013-06-04 06:57:00,
2013-06-04 03:13:00,52.2,43.0,29.97,SSW,211,0.0,1.0,71,0.00,,,0.00,0,weatherlink.com 1.10,2013-06-04 07:13:00,
2013-06-04 03:28:00,52.4,43.0,29.97,SSW,211,0.0,1.0,71,0.00,,,0.00,0,weatherlink.com 1.10,2013-06-04 07:28:00,
2013-06-04 03:43:00,52.4,43.0,29.97,SSW,211,0.0,2.0,70,0.00,,,0.00,0,weatherlink.com 1.10,2013-06-04 07:43:00,
2013-06-04 03:58:00,52.2,43.0,29.98,SSW,211,0.0,0.0,70,0.00,,,0.00,0,weatherlink.com 1.10,2013-06-04 07:58:00,
2013-06-04 04:13:00,52.0,43.0,29.97,SSW,211,0.0,0.0,71,0.00,,,0.00,0,weatherlink.com 1.10,2013-06-04 08:13:00,
2013-06-04 04:28:00,51.8,43.0,29.97,SSW,211,0.0,1.0,71,0.00,,,0.00,0,weatherlink.com 1.10,2013-06-04 08:28:00,
2013-06-04 04:43:00,51.6,43.0,29.97,SSW,211,0.0,1.0,72,0.00,,,0.00,0,weatherlink.com 1.10,2013-06-04 08:43:00,
2013-06-04 04:58:00,51.6,43.0,29.97,SSW,211,0.0,1.0,72,0.00,,,0.00,0,weatherlink.com 1.10,2013-06-04 08:58:00,
2013-06-04 05:13:00,51.5,43.0,29.98,SSW,211,0.0,2.0,72,0.00,,,0.00,0,weatherlink.com 1.10,2013-06-04 09:13:00,
2013-06-04 05:28:00,51.3,43.0,29.98,South,184,0.0,2.0,72,0.00,,,0.00,0,weatherlink.com 1.10,2013-06-04 09:28:00,
2013-06-04 05:43:00,51.1,42.0,29.98,South,182,0.0,1.0,72,0.00,,,0.00,7,weatherlink.com 1.10,2013-06-04 09:43:00,
2013-06-04 05:58:00,51.3,43.0,29.99,South,182,0.0,2.0,72,0.00,,,0.00,11,weatherlink.com 1.10,2013-06-04 09:58:00,
2013-06-04 06:13:00,51.4,42.0,29.98,South,173,1.0,3.0,71,0.00,,,0.00,14,weatherlink.com 1.10,2013-06-04 10:13:00,
2013-06-04 06:28:00,51.9,42.0,29.98,SW,221,1.0,3.0,69,0.00,,,0.00,18,weatherlink.com 1.10,2013-06-04 10:28:00,
2013-06-04 06:43:00,52.2,42.0,29.98,SSE,163,1.0,5.0,68,0.00,,,0.00,21,weatherlink.com 1.10,2013-06-04 10:43:00,
2013-06-04 06:58:00,52.7,42.0,29.99,WSW,253,1.0,3.0,67,0.00,,,0.00,23,weatherlink.com 1.10,2013-06-04 10:58:00,
2013-06-04 07:13:00,53.1,42.0,29.99,West,268,0.0,1.0,67,0.00,,,0.00,26,weatherlink.com 1.10,2013-06-04 11:13:00,
2013-06-04 07:28:00,53.6,42.0,30.00,SW,228,0.0,1.0,66,0.00,,,0.00,28,weatherlink.com 1.10,2013-06-04 11:28:00,
2013-06-04 07:43:00,54.0,43.0,30.00,ESE,107,2.0,2.0,66,0.00,,,0.00,30,weatherlink.com 1.10,2013-06-04 11:43:00,
2013-06-04 07:58:00,54.5,43.0,30.00,WNW,293,0.0,5.0,66,0.00,,,0.00,32,weatherlink.com 1.10,2013-06-04 11:58:00,
2013-06-04 08:13:00,55.0,43.0,30.00,WNW,303,2.0,4.0,65,0.00,,,0.00,33,weatherlink.com 1.10,2013-06-04 12:13:00,
2013-06-04 08:28:00,55.5,44.0,30.00,West,273,1.0,5.0,65,0.00,,,0.00,37,weatherlink.com 1.10,2013-06-04 12:28:00,
2013-06-04 08:43:00,56.3,44.0,30.00,WNW,287,2.0,4.0,64,0.00,,,0.00,39,weatherlink.com 1.10,2013-06-04 12:43:00,
2013-06-04 08:58:00,57.2,45.0,30.00,SSW,209,1.0,6.0,63,0.00,,,0.00,40,weatherlink.com 1.10,2013-06-04 12:58:00,
2013-06-04 09:13:00,58.2,45.0,30.01,SW,222,0.0,4.0,61,0.00,,,0.00,44,weatherlink.com 1.10,2013-06-04 13:13:00,
2013-06-04 09:28:00,59.2,45.0,30.01,North,355,1.0,4.0,60,0.00,,,0.00,46,weatherlink.com 1.10,2013-06-04 13:28:00,
2013-06-04 09:43:00,60.0,45.0,30.01,WSW,255,0.0,5.0,58,0.00,,,0.00,47,weatherlink.com 1.10,2013-06-04 13:43:00,
2013-06-04 09:58:00,61.0,45.0,30.01,WSW,258,0.0,6.0,55,0.00,,,0.00,49,weatherlink.com 1.10,2013-06-04 13:58:00,
2013-06-04 10:13:00,61.6,45.0,30.00,SW,214,0.0,7.0,54,0.00,,,0.00,53,weatherlink.com 1.10,2013-06-04 14:13:00,
2013-06-04 10:28:00,62.6,44.0,30.00,SSE,157,2.0,5.0,51,0.00,,,0.00,54,weatherlink.com 1.10,2013-06-04 14:28:00,
2013-06-04 10:43:00,63.5,45.0,30.00,NW,306,1.0,9.0,51,0.00,,,0.00,56,weatherlink.com 1.10,2013-06-04 14:43:00,
2013-06-04 10:58:00,64.1,44.0,30.01,NNW,328,1.0,9.0,49,0.00,,,0.00,58,weatherlink.com 1.10,2013-06-04 14:58:00,
2013-06-04 11:13:00,65.1,44.0,30.01,NNW,340,1.0,8.0,46,0.00,,,0.00,896,weatherlink.com 1.10,2013-06-04 15:13:00,
2013-06-04 11:29:00,66.1,44.0,30.00,WNW,297,1.0,6.0,45,0.00,,,0.00,921,weatherlink.com 1.10,2013-06-04 15:29:00,
2013-06-04 11:44:00,66.7,43.0,30.01,SSW,207,3.0,6.0,43,0.00,,,0.00,939,weatherlink.com 1.10,2013-06-04 15:44:00,
2013-06-04 11:59:00,67.2,43.0,30.01,SSE,155,0.0,4.0,42,0.00,,,0.00,953,weatherlink.com 1.10,2013-06-04 15:59:00,
2013-06-04 12:14:00,67.1,42.0,30.01,SE,141,2.0,7.0,41,0.00,,,0.00,969,weatherlink.com 1.10,2013-06-04 16:14:00,
2013-06-04 12:29:00,68.3,44.0,30.00,NW,323,3.0,6.0,41,0.00,,,0.00,974,weatherlink.com 1.10,2013-06-04 16:29:00,
2013-06-04 12:44:00,68.8,43.0,30.01,NW,306,0.0,5.0,40,0.00,,,0.00,977,weatherlink.com 1.10,2013-06-04 16:44:00,
2013-06-04 12:59:00,69.7,42.0,30.00,NNW,338,1.0,8.0,37,0.00,,,0.00,988,weatherlink.com 1.10,2013-06-04 16:59:00,
2013-06-04 13:14:00,69.6,43.0,30.00,SSW,203,1.0,7.0,38,0.00,,,0.00,995,weatherlink.com 1.10,2013-06-04 17:14:00,
2013-06-04 13:29:00,69.8,43.0,30.00,SW,234,2.0,9.0,38,0.00,,,0.00,997,weatherlink.com 1.10,2013-06-04 17:29:00,
2013-06-04 13:44:00,70.6,44.0,30.00,SW,233,0.0,6.0,39,0.00,,,0.00,991,weatherlink.com 1.10,2013-06-04 17:44:00,
2013-06-04 13:59:00,71.3,43.0,30.00,SSE,152,1.0,6.0,36,0.00,,,0.00,986,weatherlink.com 1.10,2013-06-04 17:59:00,
2013-06-04 14:14:00,72.0,45.0,30.00,NW,315,0.0,3.0,38,0.00,,,0.00,976,weatherlink.com 1.10,2013-06-04 18:14:00,
2013-06-04 14:29:00,71.8,45.0,30.00,West,275,1.0,5.0,38,0.00,,,0.00,958,weatherlink.com 1.10,2013-06-04 18:29:00,
2013-06-04 14:44:00,72.3,47.0,30.00,WNW,299,3.0,4.0,40,0.00,,,0.00,939,weatherlink.com 1.10,2013-06-04 18:44:00,
2013-06-04 14:59:00,72.8,45.0,30.00,NW,319,1.0,6.0,37,0.00,,,0.00,921,weatherlink.com 1.10,2013-06-04 18:59:00,
2013-06-04 15:14:00,73.6,45.0,29.99,NW,306,0.0,6.0,36,0.00,,,0.00,886,weatherlink.com 1.10,2013-06-04 19:14:00,
2013-06-04 15:29:00,72.9,46.0,29.99,SSE,148,1.0,8.0,38,0.00,,,0.00,861,weatherlink.com 1.10,2013-06-04 19:29:00,
2013-06-04 15:44:00,74.3,48.0,29.99,NW,326,1.0,3.0,40,0.00,,,0.00,826,weatherlink.com 1.10,2013-06-04 19:44:00,
2013-06-04 15:59:00,73.6,46.0,29.99,South,178,1.0,5.0,38,0.00,,,0.00,788,weatherlink.com 1.10,2013-06-04 19:59:00,
2013-06-04 16:14:00,72.7,43.0,29.99,WNW,299,4.0,4.0,35,0.00,,,0.00,756,weatherlink.com 1.10,2013-06-04 20:14:00,
2013-06-04 16:29:00,73.7,46.0,29.99,North,5,0.0,2.0,38,0.00,,,0.00,710,weatherlink.com 1.10,2013-06-04 20:29:00,
2013-06-04 16:59:00,73.5,44.0,29.99,NNW,332,1.0,4.0,35,0.00,,,0.00,622,weatherlink.com 1.10,2013-06-04 20:59:00,
2013-06-04 17:14:00,73.2,45.0,29.99,SSE,152,1.0,8.0,37,0.00,,,0.00,577,weatherlink.com 1.10,2013-06-04 21:14:00,
2013-06-04 17:29:00,73.3,43.0,30.00,NW,315,0.0,5.0,34,0.00,,,0.00,526,weatherlink.com 1.10,2013-06-04 21:29:00,
2013-06-04 17:59:00,72.8,44.0,30.01,NNW,333,1.0,6.0,35,0.00,,,0.00,429,weatherlink.com 1.10,2013-06-04 21:59:00,
2013-06-04 18:14:00,72.7,43.0,30.02,North,355,0.0,5.0,34,0.00,,,0.00,374,weatherlink.com 1.10,2013-06-04 22:14:00,
2013-06-04 18:29:00,72.3,42.0,30.02,South,171,0.0,4.0,34,0.00,,,0.00,323,weatherlink.com 1.10,2013-06-04 22:29:00,
2013-06-04 18:44:00,71.9,43.0,30.02,WSW,242,1.0,3.0,35,0.00,,,0.00,269,weatherlink.com 1.10,2013-06-04 22:44:00,
2013-06-04 18:59:00,71.3,41.0,30.03,NW,319,0.0,4.0,34,0.00,,,0.00,207,weatherlink.com 1.10,2013-06-04 22:59:00,
2013-06-04 19:14:00,70.7,41.0,30.03,South,173,0.0,5.0,34,0.00,,,0.00,151,weatherlink.com 1.10,2013-06-04 23:14:00,
2013-06-04 19:29:00,69.4,41.0,30.03,South,171,0.0,2.0,35,0.00,,,0.00,65,weatherlink.com 1.10,2013-06-04 23:29:00,
2013-06-04 19:44:00,68.3,40.0,30.04,South,170,1.0,4.0,36,0.00,,,0.00,19,weatherlink.com 1.10,2013-06-04 23:44:00,
2013-06-04 19:59:00,67.5,41.0,30.05,SW,232,1.0,2.0,38,0.00,,,0.00,12,weatherlink.com 1.10,2013-06-04 23:59:00,
2013-06-04 20:14:00,66.6,40.0,30.05,NE,55,2.0,3.0,38,0.00,,,0.00,7,weatherlink.com 1.10,2013-06-05 00:14:00,
2013-06-04 20:29:00,65.9,39.0,30.05,SSE,161,3.0,4.0,37,0.00,,,0.00,0,weatherlink.com 1.10,2013-06-05 00:29:00,
2013-06-04 20:44:00,65.5,38.0,30.06,NW,308,0.0,5.0,36,0.00,,,0.00,0,weatherlink.com 1.10,2013-06-05 00:44:00,
2013-06-04 20:59:00,64.8,38.0,30.06,South,169,2.0,6.0,37,0.00,,,0.00,0,weatherlink.com 1.10,2013-06-05 00:59:00,
2013-06-04 21:14:00,64.3,39.0,30.06,South,170,1.0,5.0,39,0.00,,,0.00,0,weatherlink.com 1.10,2013-06-05 01:14:00,
2013-06-04 21:29:00,63.3,40.0,30.07,NW,314,1.0,3.0,42,0.00,,,0.00,0,weatherlink.com 1.10,2013-06-05 01:29:00,
2013-06-04 21:44:00,62.7,38.0,30.08,SSE,163,1.0,3.0,41,0.00,,,0.00,0,weatherlink.com 1.10,2013-06-05 01:44:00,
2013-06-04 22:00:00,61.9,39.0,30.09,SSW,210,0.0,4.0,43,0.00,,,0.00,0,weatherlink.com 1.10,2013-06-05 02:00:00,
2013-06-04 22:15:00,61.2,40.0,30.10,South,171,0.0,4.0,45,0.00,,,0.00,0,weatherlink.com 1.10,2013-06-05 02:15:00,
2013-06-04 22:30:00,60.6,40.0,30.10,SSE,159,1.0,3.0,47,0.00,,,0.00,0,weatherlink.com 1.10,2013-06-05 02:30:00,
2013-06-04 22:45:00,60.1,41.0,30.11,South,171,0.0,3.0,49,0.00,,,0.00,0,weatherlink.com 1.10,2013-06-05 02:45:00,
2013-06-04 23:00:00,59.6,41.0,30.12,West,259,1.0,3.0,50,0.00,,,0.00,0,weatherlink.com 1.10,2013-06-05 03:00:00,
2013-06-04 23:15:00,59.4,41.0,30.12,South,173,1.0,3.0,50,0.00,,,0.00,0,weatherlink.com 1.10,2013-06-05 03:15:00,
2013-06-04 23:30:00,59.6,41.0,30.12,South,170,1.0,3.0,50,0.00,,,0.00,0,weatherlink.com 1.10,2013-06-05 03:30:00,
2013-06-04 23:45:00,59.6,41.0,30.12,SSE,158,0.0,3.0,50,0.00,,,0.00,0,weatherlink.com 1.10,2013-06-05 03:45:00,